Llano, TX

6:16 PM CST on February 06, 2016 (GMT -0600)
Llano

Weather History for KAQO - May, 2014

Change the Weather History Date:

Thursday, May 1, 2014

  Actual Average (KAUS) Record (KAUS)
Temperature  
Mean Temperature 62 °F 71 °F  
Max Temperature 78 °F 83 °F 95 °F (2011)
Min Temperature 46 °F 59 °F 42 °F (2005)
Degree Days  
Heating Degree Days 3 0  
Month to date heating degree days 0  
Since 1 July heating degree days 1900  
Cooling Degree Days 0 7  
Month to date cooling degree days 7  
Year to date cooling degree days 195  
Growing Degree Days 12 (Base 50)    
Moisture  
Dew Point 29 °F    
Average Humidity 32    
Maximum Humidity 62    
Minimum Humidity 15    
Precipitation  
Precipitation 0.00 in 0.09 in 3.23 in (1956)
Month to date precipitation 0.09  
Year to date precipitation 9.69  
Snow  
Snow 0.00 in - - ()
Month to date snowfall  
Since 1 July snowfall  
Snow Depth -    
Sea Level Pressure  
Sea Level Pressure 30.16 in    
Wind  
Wind Speed 2 mph (North)    
Max Wind Speed 12 mph    
Max Gust Speed 18 mph    
Visibility 10 miles    
Events      
T = Trace of Precipitation, MM = Missing Value Source: NWS Daily Summary

Daily Weather History Graph

Daily Weather History Graph

Search for Another Location

Airport or City:

Trip Planner

Search our weather history database for the weather conditions in past years. The results will help you decide how hot, cold, wet, or windy it might be!

Date:

Astronomy

May. 01, 2014 Rise Set
Actual Time 6:50 AM CDT 8:13 PM CDT
Civil Twilight 6:25 AM CDT 8:38 PM CDT
Nautical Twilight 5:54 AM CDT 9:09 PM CDT
Astronomical Twilight 5:22 AM CDT 9:41 PM CDT
Moon 8:43 AM CDT (5/1) 10:43 PM CDT (5/1)
Length of Visible Light 14h 13m
Length of Day
13h 22m
Waxing Crescent, 7% of the Moon is Illuminated
May 1
Waxing Crescent
May 6
First Quarter
May 14
Full
May 21
Last Quarter
May 28
New

Hourly Weather History & Observations

Time (CDT) Temp. Dew Point Humidity Pressure Visibility Wind Dir Wind Speed Gust Speed Precip Events Conditions
12:15 AM 53.6 °F 30.2 °F 41% 30.21 in 10.0 mi Calm Calm - N/A   Clear
12:35 AM 53.6 °F 30.2 °F 41% 30.22 in 10.0 mi Calm Calm - N/A   Clear
1:15 AM 51.8 °F 30.2 °F 44% 30.22 in 10.0 mi Calm Calm - N/A   Clear
1:35 AM 48.2 °F 32.0 °F 54% 30.21 in 10.0 mi Calm Calm - N/A   Clear
1:55 AM 51.8 °F 30.2 °F 44% 30.21 in 10.0 mi Calm Calm - N/A   Clear
2:15 AM 50.0 °F 30.2 °F 47% 30.21 in 10.0 mi Calm Calm - N/A   Clear
2:35 AM 48.2 °F 33.8 °F 58% 30.22 in 10.0 mi Calm Calm - N/A   Clear
2:55 AM 51.8 °F 32.0 °F 47% 30.21 in 10.0 mi Calm Calm - N/A   Clear
3:15 AM 48.2 °F 33.8 °F 58% 30.21 in 10.0 mi Calm Calm - N/A   Clear
3:35 AM 48.2 °F 32.0 °F 54% 30.21 in 10.0 mi WSW 4.6 mph - N/A   Clear
3:55 AM 48.2 °F 32.0 °F 54% 30.21 in 10.0 mi Calm Calm - N/A   Clear
4:15 AM 48.2 °F 32.0 °F 54% 30.21 in 10.0 mi Calm Calm - N/A   Clear
4:35 AM 46.4 °F 32.0 °F 57% 30.20 in 10.0 mi Calm Calm - N/A   Clear
4:55 AM 46.4 °F 32.0 °F 57% 30.20 in 10.0 mi Calm Calm - N/A   Clear
5:15 AM 46.4 °F 32.0 °F 57% 30.21 in 10.0 mi Calm Calm - N/A   Clear
5:35 AM 48.2 °F 32.0 °F 54% 30.21 in 10.0 mi Calm Calm - N/A   Clear
5:55 AM 46.4 °F 33.8 °F 62% 30.22 in 10.0 mi Calm Calm - N/A   Clear
6:15 AM 48.2 °F 32.0 °F 54% 30.22 in 10.0 mi Calm Calm - N/A   Clear
6:35 AM 46.4 °F 33.8 °F 62% 30.21 in 10.0 mi Calm Calm - N/A   Clear
6:55 AM 48.2 °F 33.8 °F 58% 30.22 in 10.0 mi Calm Calm - N/A   Clear
7:15 AM 48.2 °F 33.8 °F 58% 30.22 in 10.0 mi Calm Calm - N/A   Clear
7:35 AM 48.2 °F 33.8 °F 58% 30.23 in 10.0 mi Calm Calm - N/A   Clear
8:15 AM 51.8 °F 33.8 °F 50% 30.24 in 10.0 mi Calm Calm - N/A   Clear
8:35 AM 55.4 °F 32.0 °F 41% 30.25 in 10.0 mi Calm Calm - N/A   Clear
8:55 AM 57.2 °F 32.0 °F 38% 30.25 in 10.0 mi Calm Calm - N/A   Partly Cloudy
9:15 AM 60.8 °F 32.0 °F 34% 30.24 in 10.0 mi Calm Calm - N/A   Clear
9:35 AM 62.6 °F 32.0 °F 32% 30.24 in 10.0 mi Calm Calm - N/A   Clear
9:55 AM 62.6 °F 30.2 °F 30% 30.24 in 10.0 mi Calm Calm - N/A   Clear
10:15 AM 66.2 °F 28.4 °F 24% 30.24 in 10.0 mi Calm Calm - N/A   Partly Cloudy
10:35 AM 66.2 °F 26.6 °F 23% 30.23 in 10.0 mi NNE 4.6 mph - N/A   Partly Cloudy
10:55 AM 69.8 °F 23.0 °F 17% 30.23 in 10.0 mi NE 5.8 mph - N/A   Clear
11:15 AM 69.8 °F 24.8 °F 18% 30.22 in 10.0 mi NE 5.8 mph - N/A   Clear
11:35 AM 69.8 °F 23.0 °F 17% 30.22 in 10.0 mi Calm Calm - N/A   Partly Cloudy
12:15 PM 71.6 °F 24.8 °F 17% 30.21 in 10.0 mi NNE 9.2 mph - N/A   Clear
12:35 PM 71.6 °F 23.0 °F 16% 30.20 in 10.0 mi North 9.2 mph - N/A   Clear
12:55 PM 73.4 °F 24.8 °F 16% 30.19 in 10.0 mi NE 10.4 mph - N/A   Clear
1:15 PM 73.4 °F 24.8 °F 16% 30.17 in 10.0 mi ENE 8.1 mph 17.3 mph N/A   Clear
1:35 PM 73.4 °F 26.6 °F 18% 30.16 in 10.0 mi North 9.2 mph 18.4 mph N/A   Clear
1:55 PM 75.2 °F 26.6 °F 17% 30.16 in 10.0 mi North 6.9 mph - N/A   Clear
2:15 PM 75.2 °F 26.6 °F 17% 30.15 in 10.0 mi North 9.2 mph - N/A   Clear
2:35 PM 75.2 °F 26.6 °F 17% 30.13 in 10.0 mi NW 10.4 mph - N/A   Clear
2:55 PM 73.4 °F 26.6 °F 18% 30.12 in 10.0 mi North 5.8 mph - N/A   Partly Cloudy
3:15 PM 75.2 °F 26.6 °F 17% 30.11 in 10.0 mi North 10.4 mph - N/A   Clear
3:35 PM 77.0 °F 26.6 °F 16% 30.10 in 10.0 mi North 6.9 mph - N/A   Clear
3:55 PM 75.2 °F 26.6 °F 17% 30.09 in 10.0 mi Calm Calm - N/A   Partly Cloudy
4:15 PM 78.8 °F 26.6 °F 15% 30.07 in 10.0 mi NNE 6.9 mph - N/A   Scattered Clouds
4:35 PM 75.2 °F 26.6 °F 17% 30.07 in 10.0 mi NNE 5.8 mph - N/A   Partly Cloudy
4:55 PM 75.2 °F 24.8 °F 15% 30.06 in 10.0 mi West 5.8 mph - N/A   Partly Cloudy
5:15 PM 77.0 °F 26.6 °F 16% 30.06 in 10.0 mi ENE 8.1 mph - N/A   Partly Cloudy
5:35 PM 75.2 °F 24.8 °F 15% 30.06 in 10.0 mi Calm Calm - N/A   Scattered Clouds
5:55 PM 75.2 °F 24.8 °F 15% 30.06 in 10.0 mi North 8.1 mph - N/A   Partly Cloudy
6:15 PM 75.2 °F 24.8 °F 15% 30.06 in 10.0 mi NNW 8.1 mph - N/A   Scattered Clouds
6:35 PM 75.2 °F 24.8 °F 15% 30.06 in 10.0 mi NNW 9.2 mph - N/A   Mostly Cloudy
6:55 PM 73.4 °F 24.8 °F 16% 30.06 in 10.0 mi NNW 9.2 mph - N/A   Mostly Cloudy
7:15 PM 73.4 °F 26.6 °F 18% 30.06 in 10.0 mi NNW 5.8 mph - N/A   Mostly Cloudy
7:35 PM 73.4 °F 26.6 °F 18% 30.07 in 10.0 mi NNW 5.8 mph - N/A   Partly Cloudy
7:55 PM 71.6 °F 26.6 °F 19% 30.07 in 10.0 mi North 4.6 mph - N/A   Scattered Clouds
8:15 PM 71.6 °F 28.4 °F 20% 30.08 in 10.0 mi Calm Calm - N/A   Mostly Cloudy
8:35 PM 69.8 °F 28.4 °F 21% 30.09 in 10.0 mi Calm Calm - N/A   Overcast
8:55 PM 69.8 °F 28.4 °F 21% 30.10 in 10.0 mi Calm Calm - N/A   Overcast
9:15 PM 68.0 °F 28.4 °F 23% 30.11 in 10.0 mi North 11.5 mph 16.1 mph N/A   Partly Cloudy
9:35 PM 69.8 °F 26.6 °F 20% 30.11 in 10.0 mi NNE 4.6 mph - N/A   Partly Cloudy
9:55 PM 69.8 °F 26.6 °F 20% 30.12 in 10.0 mi NNE 4.6 mph - N/A   Partly Cloudy
10:15 PM 68.0 °F 28.4 °F 23% 30.12 in 10.0 mi NE 3.5 mph - N/A   Mostly Cloudy
10:35 PM 66.2 °F 28.4 °F 24% 30.12 in 10.0 mi Calm Calm - N/A   Scattered Clouds
10:55 PM 64.4 °F 28.4 °F 26% 30.12 in 10.0 mi Calm Calm - N/A   Scattered Clouds
11:15 PM 60.8 °F 30.2 °F 31% 30.12 in 10.0 mi Calm Calm - N/A   Scattered Clouds
11:35 PM 60.8 °F 28.4 °F 29% 30.13 in 10.0 mi Calm Calm - N/A   Clear
11:55 PM 62.6 °F 26.6 °F 26% 30.12 in 10.0 mi NE 4.6 mph - N/A   Clear